Regional Weather Roundup
Issued by NWS

Home | Current Version | Previous Version | Graphics & Text | Print | Product List | Glossary Off
Versions: 1 2 3 4 5 6 7 8 9 10 11 12 13 14 15 16 17 18 19 20 21 22 23 24 25 26 27 28 29 30 31 32 33 34 35 36 37 38 39 40 41 42 43 44 45 46 47 48 49 50

000
ASUS43 KMKX 250428
RWRWI

WISCONSIN REGIONAL WEATHER ROUNDUP
NATIONAL WEATHER SERVICE MILWAUKEE/SULLIVAN WI
1100 PM CDT SUN MAY 24 2015

NOTE: "FAIR" INDICATES FEW OR NO CLOUDS BELOW 12,000 FEET WITH NO
SIGNIFICANT WEATHER AND/OR OBSTRUCTIONS TO VISIBILITY.

WIZ001-002-006>008-014>016-023>028-250500-
NORTHWEST WISCONSIN

CITY           SKY/WX    TMP DP  RH WIND       PRES   REMARKS
SUPERIOR ARPT  DRIZZLE   57  55  95 NE3       29.90F
ASHLAND        LGT RAIN  58  58 100 CALM      29.92F FOG
HAYWARD        LGT RAIN  58  56  93 E6        29.90F
SIREN          DRIZZLE   58  57  96 E7        29.86F
CUMBERLAND     RAIN      55  54  94 E9        29.86F
RICE LAKE      DRIZZLE   57  55  92 E9        29.88F
CHETEK         DRIZZLE   57  56  97 E6        29.87F
LADYSMITH      RAIN      57  56  97 E8        29.90F
EAU CLAIRE     CLOUDY    57  55  93 E8        29.84F
MENOMONIE      CLOUDY    58  57  98 E12       29.84F FOG
NEW RICHMOND   RAIN      57  57 100 E10G17    29.83F
OSCEOLA        DRIZZLE   58  58 100 E9        29.85F
$$

WIZ003>005-009-010-017-018-250500-
NORTH CENTRAL WISCONSIN

CITY           SKY/WX    TMP DP  RH WIND       PRES   REMARKS
MANITOWISH WTR DRIZZLE   56  56 100 E6        29.94F
ARBOR VITAE    DRIZZLE   57  55  95 E8        29.95F
WOODRUFF       DRIZZLE   57  55  95 E8        29.95F
RHINELANDER    RAIN      55  54  96 E9        29.95F FOG
EAGLE RIVER    RAIN      56  55  99 E8        29.96F
LAND O LAKES   LGT RAIN  56  55  97 SE3       29.97F
PHILLIPS       LGT RAIN  56  55  99 E6        29.91F
TOMAHAWK       RAIN      55  54  96 E5        29.94F
MEDFORD        RAIN      55  54  98 E8        29.90F
MERRILL        LGT RAIN  56  56 100 E8        29.93F
$$

WIZ029-030-035-036-043>047-250500-
CENTRAL WISCONSIN

CITY           SKY/WX    TMP DP  RH WIND       PRES   REMARKS
WAUSAU         LGT RAIN  55  54  96 E10       29.91F
MOSINEE        CLOUDY    54  54 100 E10       29.92F
MARSHFIELD     LGT RAIN  56  54  93 E8        29.89F FOG
STEVENS POINT  LGT RAIN  53  53  98 E9        29.91F
WAUPACA        LGT RAIN  57  56  97 E6        29.92F
WAUTOMA        LGT RAIN  57  57 100 E5        29.91F FOG
WISC RAPIDS    LGT RAIN  57  53  86 E9        29.90F
CAMP DOUGLAS   CLOUDY    57  57 100 E7        29.86F
$$

WIZ011>013-019>022-031-037>040-048>050-250500-
NORTHEAST WISCONSIN

CITY           SKY/WX    TMP DP  RH WIND       PRES   REMARKS
ANTIGO         RAIN      55  54  99 SE8       29.95F
SHAWANO        DRIZZLE   57  55  94 E7        29.95F
OCONTO         CLOUDY    55  55 100 E6        29.96F
STURGEON BAY   CLOUDY    57  54  88 E9        29.99F
GREEN BAY      CLOUDY    57  55  93 NE8       29.95F FOG
MANITOWOC      RAIN      57  56  96 E7        29.96F FOG
APPLETON       LGT RAIN  55  55 100 E8        29.96F FOG
CLINTONVILLE   DRIZZLE   54  54 100 E5        29.94F
OSHKOSH        CLOUDY    58  56  93 E9        29.91F
$$

WIZ032>034-041-042-053>061-250500-
SOUTHWEST WISCONSIN

CITY           SKY/WX    TMP DP  RH WIND       PRES   REMARKS
LA CROSSE      CLOUDY    61  57  87 SE8       29.81F
SPARTA         CLOUDY    57  55  94 E7        29.85F
VIROQUA        CLOUDY    57  57 100 E12       29.83F
BOSCOBEL       CLOUDY    60  58  92 NE5       29.84S FOG
PRAIRIE DU CHI CLOUDY    62  60  92 E8        29.80F FOG
PLATTEVILLE    CLOUDY    63  62  97 E13       29.84F
$$

WIZ056-057-062-063-064-067-068-250500-
SOUTH CENTRAL WISCONSIN

CITY           SKY/WX    TMP DP  RH WIND       PRES   REMARKS
REEDSBURG      CLOUDY    56  56  99 E3        29.87F FOG
BARABOO/DELLS  CLOUDY    56  54  94 E7        29.88F FOG
LONE ROCK      CLOUDY    59  57  93 E12       29.86F FOG
MINERAL POINT  CLOUDY    61  59  94 E9        29.85F FOG
MADISON        CLOUDY    59  57  93 SE3       29.89S FOG
MIDDLETON      CLOUDY    59  59  97 SE6       29.89F
WATERTOWN      CLOUDY    56  56 100 E7        29.90F FOG
MONROE         FOG       59  59 100 E8        29.88F VSB 3/4
JANESVILLE     RAIN      63  61  94 SE6       29.89R
$$

WIZ051-052-058>065-066-070>072-250500-
SOUTHEAST WISCONSIN

CITY           SKY/WX    TMP DP  RH WIND       PRES   REMARKS
MILWAUKEE      LGT RAIN  57  53  86 W6        29.94R
WAUKESHA       CLOUDY    54  54 100 CALM      29.95F FOG
MILWAUKEE/TIMM LGT RAIN  54  52  94 CALM      29.94R
RACINE         RAIN      59  54  83 W15       29.97R
BURLINGTON     LGT RAIN  59  58  97 SE3       29.92F
KENOSHA        LGT RAIN  61  59  93 SE5       29.92S FOG
FOND DU LAC    LGT RAIN  58  55  90 SE7       29.92F
SHEBOYGAN      RAIN      54  53  97 N3        29.95F FOG
WEST BEND      HVY RAIN  54  52  94 E6        29.94S
JUNEAU         CLOUDY    57  56  97 E9        29.92F FOG
$$

LSZ147-162-250500-
LAKE SUPERIOR

STATION/POSITION TIME  TEMP    WIND        PRES    WAVE
                       AIR SEA DIR/SP/G            HT/PER
                 (UTC) (F)     (DEG/KT/KT) (MB)    (FT/S)
W MID LAKE BUOY  0350   48 37  210/  8/ 10   N/A     0
DEVILS ISLAND    0400   60      CALM  /  1   N/A
PORT WING        0300           40/  6/  6   N/A
SAXON HARBOR     0340   60      CALM  /  5   N/A
$$

LMZ867-665-643>646-250500-
LAKE MICHIGAN

STATION/POSITION TIME  TEMP    WIND        PRES    WAVE
                       AIR SEA DIR/SP/G            HT/PER
                 (UTC) (F)     (DEG/KT/KT) (MB)    (FT/S)
CHAMBERS ISLAND  0300   54      40/  1/  1   N/A
N MID LAKE BUOY  0350   44 36   80/  6/  8   N/A     1/ 4
NORTHPORT PIER   0300   51     170/  2/  6   N/A
SISTER BAY       0317   53        CALM       N/A
KEWAUNEE LAKESHO 0300   52      50/  1/  5   N/A
SHEBOYGAN LAKESH 0400   52     350/  5/  5   N/A
PORT WASHINGTON  0320   54      60/  1/ 14   N/A
ATWATER BUOY     0400   53 46  320/  2/  6   N/A
MILWAUKEE LAKESH 0400   57     250/  6/ 12   N/A
S MID LAKE BUOY  0350   49 38  110/ 10/ 12   N/A     1
KENOSHA   LAKESH 0400   60     250/  6/ 15   N/A
$$

TC  - TEMPERATURE IN CELSIUS
VSB - VISIBILITY IN STATUTE MILES
WCI - WIND CHILL INDEX
HX  - HEAT INDEX



USA.gov is the U.S. government's official web portal to all federal, state and local government web resources and services.